QPF
0.00 0.00 0.00 0.00 0.00 0.00 0.00 0.00 0.00 0.00 0.00 0.00 0.00 0.00 0.00 0.00 0.00 0.00 0.00 0.00 0.00 0.00 0.00 0.00 0.00 0.00 0.00 0.00 0.00 0.00 0.00 0.00 0.00 0.00 0.00 0.00 0.00 0.00 0.00 0.00 0.00 0.00 0.00
0.00 0.00 0.00 0.00 0.00 0.00 0.00 0.00 0.00 0.00 0.00 0.00 0.00 0.00 0.00 0.00 0.00 0.00 0.00 0.00 0.00 0.00 0.00 0.00 0.00 0.00 0.00 0.00 0.00 0.00 0.00 0.00 0.00 0.00 0.00 0.00 0.00 0.00 0.00 0.00 0.00 0.00 0.00
0.00 0.00 0.00 0.00 0.00 0.00 0.00 0.00 0.00 0.00 0.00 0.00 0.00 0.00 0.00 0.00 0.00 0.00 0.00 0.00 0.00 0.00 0.00 0.00 0.00 0.00 0.00 0.00 0.00 0.00 0.00 0.00 0.00 0.00 0.00 0.00 0.00 0.00 0.00 0.00 0.00 0.00 0.00
0.00 0.00 0.00 0.00 0.00 0.00 0.00 0.00 0.00 0.00 0.00 0.00 0.00 0.00 0.00 0.00 0.00 0.00 0.00 0.00 0.00 0.00 0.00 0.00 0.00 0.00 0.00 0.00 0.00 0.00 0.00 0.00 0.00 0.00 0.00 0.00 0.00 0.00 0.00 0.00 0.00 0.00 0.00
0.00 0.00 0.00 0.00 0.00 0.00 0.00 0.00 0.00 0.00 0.00 0.00 0.00 0.00 0.00 0.00 0.00 0.00 0.00 0.00 0.00 0.00 0.00 0.00 0.00 0.00 0.00 0.00 0.00 0.00 0.00 0.00 0.00 0.00 0.00 0.00 0.00 0.00 0.00 0.00 0.00 0.00 0.00
0.00 0.00 0.00 0.00 0.00 0.00 0.00 0.00 0.00 0.00 0.00 0.00 0.00 0.00 0.00 0.00 0.00 0.00 0.00 0.00 0.00 0.00 0.00 0.00 0.00 0.00 0.00 0.00 0.00 0.00 0.00 0.00 0.00 0.00 0.00 0.00 0.00 0.00 0.00 0.00 0.00 0.00 0.00
0.00 0.00 0.00 0.00 0.00 0.00 0.00 0.00 0.00 0.00 0.00 0.00 0.00 0.00 0.00 0.00 0.00 0.00 0.00 0.00 0.00 0.00 0.00 0.00 0.00 0.00 0.00 0.00 0.00 0.00 0.00 0.00 0.00 0.00 0.00 0.00 0.00 0.00 0.00 0.00 0.00 0.00 0.00
0.00 0.00 0.00 0.00 0.00 0.00 0.00 0.00 0.00 0.00 0.00 0.00 0.00 0.00 0.00 0.00 0.00 0.00 0.00 0.00 0.00 0.00 0.00 0.00 0.00 0.00 0.00 0.00 0.00 0.00 0.00 0.00 0.00 0.00 0.00 0.00 0.00 0.00 0.00 0.00 0.00 0.00 0.00
0.00 0.00 0.00 0.00 0.00 0.00 0.00 0.00 0.00 0.00 0.00 0.00 0.00 0.00 0.00 0.00 0.00 0.00 0.00 0.00 0.00 0.00 0.00 0.00 0.00 0.00 0.00 0.00 0.00 0.00 0.00 0.00 0.00 0.00 0.00 0.00 0.00 0.00 0.00 0.00 0.00 0.00 0.00
0.00 0.00 0.00 0.00 0.00 0.00 0.00 0.00 0.00 0.00 0.00 0.00 0.00 0.00 0.00 0.00 0.00 0.00 0.00 0.00 0.00 0.00 0.00 0.00 0.00 0.00 0.00 0.00 0.00 0.00 0.00 0.00 0.00 0.00 0.00 0.00 0.00 0.00 0.00 0.00 0.00 0.00 0.00
0.00 0.00 0.00 0.00 0.00 0.00 0.00 0.00 0.00 0.00 0.00 0.00 0.00 0.00 0.00 0.00 0.00 0.00 0.00 0.00 0.00 0.00 0.00 0.00 0.00 0.00 0.00 0.00 0.00 0.00 0.00 0.00 0.00 0.00 0.00 0.00 0.00 0.00 0.00 0.00 0.00 0.00 0.00
0.00 0.00 0.00 0.00 0.00 0.00 0.00 0.00 0.00 0.00 0.00 0.00 0.00 0.00 0.00 0.00 0.00 0.00 0.00 0.00 0.00 0.00 0.00 0.00 0.00 0.00 0.00 0.00 0.00 0.00 0.00 0.00 0.00 0.00 0.00 0.00 0.00 0.00 0.00 0.00 0.00 0.00 0.00
0.00 0.00 0.00 0.00 0.00 0.00 0.00 0.00 0.00 0.00 0.00 0.00 0.00 0.00 0.00 0.00 0.00 0.00 0.00 0.00 0.00 0.00 0.00 0.00 0.00 0.00 0.00 0.00 0.00 0.00 0.00 0.00 0.00 0.00 0.00 0.00 0.00 0.00 0.00 0.00 0.00 0.00 0.00
0.00 0.00 0.00 0.00 0.00 0.00 0.00 0.00 0.00 0.00 0.00 0.00 0.00 0.00 0.00 0.00 0.00 0.00 0.00 0.00 0.00 0.00 0.00 0.00 0.00 0.00 0.00 0.00 0.00 0.00 0.00 0.00 0.00 0.00 0.00 0.00 0.00 0.00 0.00 0.00 0.00 0.00 0.01
0.00 0.00 0.00 0.00 0.00 0.00 0.00 0.00 0.00 0.00 0.00 0.00 0.00 0.00 0.00 0.00 0.00 0.00 0.00 0.00 0.00 0.00 0.00 0.00 0.00 0.00 0.00 0.00 0.00 0.00 0.00 0.00 0.00 0.00 0.00 0.00 0.00 0.00 0.01 0.01 0.01 0.02 0.02
0.00 0.00 0.00 0.00 0.00 0.00 0.00 0.00 0.00 0.00 0.00 0.00 0.00 0.00 0.00 0.00 0.00 0.00 0.00 0.00 0.00 0.00 0.00 0.00 0.00 0.00 0.00 0.00 0.00 0.00 0.00 0.00 0.00 0.00 0.00 0.00 0.00 0.00 0.01 0.01 0.02 0.03 0.03
0.00 0.00 0.00 0.00 0.00 0.00 0.00 0.00 0.00 0.00 0.00 0.00 0.00 0.00 0.00 0.00 0.00 0.00 0.00 0.00 0.00 0.00 0.00 0.00 0.00 0.00 0.00 0.00 0.00 0.00 0.00 0.00 0.00 0.00 0.00 0.00 0.00 0.00 0.00 0.00 0.01 0.01 0.01
0.00 0.00 0.00 0.00 0.00 0.00 0.00 0.00 0.00 0.00 0.00 0.00 0.00 0.00 0.00 0.00 0.00 0.00 0.00 0.00 0.00 0.00 0.00 0.00 0.00 0.00 0.00 0.00 0.00 0.00 0.00 0.00 0.00 0.00 0.00 0.00 0.00 0.00 0.01 0.01 0.01 0.01 0.01
0.00 0.00 0.00 0.00 0.00 0.00 0.00 0.00 0.00 0.00 0.00 0.00 0.00 0.00 0.00 0.00 0.00 0.00 0.00 0.00 0.00 0.00 0.00 0.00 0.00 0.00 0.00 0.00 0.00 0.00 0.00 0.00 0.00 0.00 0.00 0.00 0.00 0.01 0.03 0.03 0.02 0.02 0.01
0.00 0.00 0.00 0.00 0.00 0.00 0.00 0.00 0.00 0.00 0.00 0.00 0.00 0.00 0.00 0.00 0.00 0.00 0.00 0.00 0.00 0.00 0.00 0.00 0.00 0.00 0.00 0.00 0.00 0.00 0.00 0.00 0.00 0.00 0.00 0.01 0.01 0.02 0.04 0.03 0.03 0.05 0.03
0.00 0.00 0.00 0.00 0.00 0.00 0.00 0.00 0.00 0.00 0.00 0.00 0.00 0.00 0.00 0.00 0.00 0.00 0.00 0.00 0.00 0.00 0.00 0.00 0.00 0.00 0.00 0.00 0.00 0.00 0.00 0.00 0.01 0.01 0.01 0.00 0.01 0.02 0.04 0.05 0.05 0.05 0.05
0.00 0.00 0.00 0.00 0.00 0.00 0.00 0.00 0.00 0.00 0.00 0.00 0.00 0.00 0.00 0.00 0.00 0.00 0.00 0.00 0.00 0.00 0.00 0.00 0.00 0.00 0.00 0.00 0.00 0.00 0.01 0.01 0.01 0.01 0.00 0.00 0.02 0.04 0.05 0.04 0.03 0.04 0.04
0.00 0.00 0.00 0.00 0.00 0.00 0.00 0.00 0.00 0.00 0.00 0.00 0.00 0.00 0.00 0.00 0.00 0.00 0.00 0.00 0.00 0.00 0.00 0.00 0.00 0.00 0.00 0.00 0.00 0.00 0.01 0.01 0.02 0.01 0.02 0.03 0.04 0.04 0.02 0.01 0.02 0.02 0.02
0.00 0.00 0.00 0.00 0.00 0.00 0.00 0.00 0.00 0.00 0.00 0.00 0.00 0.00 0.00 0.00 0.00 0.00 0.00 0.00 0.00 0.00 0.00 0.00 0.00 0.00 0.00 0.00 0.00 0.00 0.01 0.01 0.02 0.02 0.02 0.03 0.03 0.02 0.01 0.01 0.01 0.01 0.01
0.00 0.00 0.00 0.00 0.00 0.00 0.00 0.00 0.00 0.00 0.00 0.00 0.00 0.00 0.00 0.00 0.00 0.00 0.00 0.00 0.00 0.00 0.00 0.00 0.00 0.01 0.01 0.00 0.01 0.02 0.02 0.02 0.02 0.03 0.04 0.02 0.01 0.01 0.00 0.00 0.00 0.01 0.01
0.00 0.00 0.00 0.00 0.00 0.00 0.00 0.00 0.00 0.00 0.00 0.00 0.00 0.00 0.00 0.00 0.00 0.00 0.00 0.00 0.00 0.00 0.00 0.00 0.01 0.01 0.01 0.01 0.02 0.02 0.02 0.03 0.03 0.04 0.04 0.01 0.01 0.01 0.01 0.02 0.02 0.01 0.01
MSLP
1017.70 1017.78 1017.83 1017.86 1017.92 1018.01 1018.18 1018.43 1018.77 1019.17 1019.60 1020.05 1020.47 1020.85 1021.18 1021.43 1021.62 1021.77 1021.87 1021.95 1022.04 1022.13 1022.24 1022.38 1022.55 1022.73 1022.92 1023.10 1023.25 1023.36 1023.41 1023.39 1023.29 1023.11 1022.87 1022.56 1022.20 1021.82 1021.43 1021.05 1020.70 1020.38 1020.10
1017.89 1018.07 1018.18 1018.24 1018.29 1018.35 1018.48 1018.69 1019.00 1019.39 1019.84 1020.31 1020.76 1021.15 1021.47 1021.71 1021.87 1021.97 1022.03 1022.08 1022.14 1022.23 1022.35 1022.51 1022.69 1022.89 1023.08 1023.25 1023.40 1023.49 1023.52 1023.49 1023.38 1023.20 1022.94 1022.62 1022.25 1021.85 1021.42 1021.01 1020.61 1020.25 1019.94
1017.96 1018.26 1018.46 1018.57 1018.64 1018.70 1018.81 1019.01 1019.30 1019.69 1020.14 1020.62 1021.08 1021.47 1021.78 1021.99 1022.10 1022.16 1022.18 1022.20 1022.24 1022.32 1022.44 1022.60 1022.78 1022.97 1023.15 1023.30 1023.42 1023.50 1023.52 1023.48 1023.39 1023.22 1022.99 1022.69 1022.33 1021.92 1021.48 1021.03 1020.59 1020.19 1019.84
1017.89 1018.31 1018.62 1018.82 1018.94 1019.03 1019.14 1019.33 1019.62 1020.00 1020.45 1020.93 1021.38 1021.76 1022.04 1022.21 1022.29 1022.31 1022.29 1022.28 1022.30 1022.37 1022.48 1022.63 1022.80 1022.96 1023.11 1023.23 1023.32 1023.38 1023.39 1023.37 1023.30 1023.18 1022.99 1022.73 1022.40 1022.01 1021.56 1021.08 1020.61 1020.15 1019.74
1017.69 1018.24 1018.66 1018.95 1019.14 1019.27 1019.41 1019.61 1019.90 1020.27 1020.71 1021.17 1021.60 1021.96 1022.22 1022.36 1022.41 1022.40 1022.37 1022.34 1022.35 1022.40 1022.50 1022.62 1022.76 1022.89 1022.99 1023.07 1023.12 1023.15 1023.17 1023.16 1023.13 1023.05 1022.92 1022.72 1022.43 1022.06 1021.61 1021.11 1020.60 1020.09 1019.62
1017.39 1018.05 1018.58 1018.97 1019.23 1019.42 1019.59 1019.80 1020.09 1020.45 1020.88 1021.32 1021.72 1022.06 1022.29 1022.43 1022.47 1022.45 1022.41 1022.38 1022.39 1022.44 1022.52 1022.62 1022.72 1022.79 1022.84 1022.86 1022.87 1022.87 1022.87 1022.87 1022.87 1022.85 1022.77 1022.62 1022.37 1022.03 1021.59 1021.07 1020.52 1019.97 1019.44
1017.02 1017.77 1018.39 1018.86 1019.20 1019.44 1019.65 1019.88 1020.17 1020.53 1020.94 1021.36 1021.75 1022.06 1022.29 1022.42 1022.47 1022.47 1022.45 1022.44 1022.46 1022.51 1022.57 1022.64 1022.69 1022.71 1022.69 1022.65 1022.60 1022.55 1022.53 1022.54 1022.56 1022.56 1022.53 1022.41 1022.20 1021.88 1021.44 1020.92 1020.34 1019.75 1019.17
1016.62 1017.42 1018.11 1018.65 1019.05 1019.34 1019.59 1019.85 1020.15 1020.51 1020.91 1021.32 1021.70 1022.01 1022.25 1022.39 1022.47 1022.50 1022.51 1022.53 1022.57 1022.62 1022.67 1022.70 1022.70 1022.65 1022.56 1022.44 1022.33 1022.23 1022.18 1022.16 1022.18 1022.20 1022.18 1022.09 1021.89 1021.58 1021.15 1020.62 1020.03 1019.42 1018.81
1016.20 1017.03 1017.76 1018.34 1018.79 1019.14 1019.44 1019.73 1020.05 1020.43 1020.83 1021.24 1021.62 1021.95 1022.20 1022.37 1022.48 1022.55 1022.60 1022.65 1022.70 1022.75 1022.78 1022.77 1022.71 1022.59 1022.43 1022.24 1022.05 1021.90 1021.80 1021.75 1021.74 1021.74 1021.72 1021.64 1021.45 1021.14 1020.71 1020.19 1019.60 1018.98 1018.36
1015.79 1016.61 1017.35 1017.97 1018.46 1018.86 1019.21 1019.55 1019.92 1020.32 1020.75 1021.17 1021.57 1021.91 1022.18 1022.38 1022.52 1022.62 1022.69 1022.76 1022.82 1022.85 1022.86 1022.81 1022.69 1022.50 1022.27 1022.01 1021.76 1021.54 1021.38 1021.29 1021.24 1021.22 1021.17 1021.07 1020.87 1020.56 1020.14 1019.62 1019.05 1018.44 1017.84
1015.38 1016.18 1016.91 1017.54 1018.07 1018.53 1018.94 1019.35 1019.78 1020.23 1020.69 1021.15 1021.56 1021.92 1022.20 1022.41 1022.57 1022.68 1022.76 1022.82 1022.86 1022.88 1022.84 1022.74 1022.57 1022.33 1022.04 1021.72 1021.41 1021.14 1020.93 1020.79 1020.69 1020.63 1020.54 1020.41 1020.19 1019.87 1019.45 1018.95 1018.40 1017.82 1017.25
1014.97 1015.73 1016.44 1017.08 1017.65 1018.17 1018.66 1019.15 1019.65 1020.17 1020.68 1021.16 1021.60 1021.96 1022.24 1022.45 1022.59 1022.68 1022.75 1022.78 1022.79 1022.77 1022.69 1022.54 1022.32 1022.03 1021.70 1021.34 1020.99 1020.68 1020.43 1020.25 1020.11 1019.99 1019.87 1019.69 1019.45 1019.12 1018.70 1018.21 1017.68 1017.13 1016.60
1014.56 1015.26 1015.96 1016.61 1017.22 1017.80 1018.37 1018.95 1019.54 1020.12 1020.68 1021.20 1021.64 1022.00 1022.26 1022.44 1022.55 1022.60 1022.62 1022.61 1022.57 1022.50 1022.37 1022.19 1021.93 1021.62 1021.26 1020.88 1020.52 1020.18 1019.91 1019.68 1019.50 1019.34 1019.17 1018.95 1018.67 1018.32 1017.89 1017.40 1016.89 1016.37 1015.86
1014.14 1014.81 1015.48 1016.14 1016.79 1017.44 1018.09 1018.76 1019.42 1020.07 1020.67 1021.20 1021.64 1021.98 1022.21 1022.35 1022.41 1022.41 1022.37 1022.31 1022.22 1022.09 1021.93 1021.71 1021.43 1021.11 1020.75 1020.37 1020.00 1019.66 1019.37 1019.11 1018.90 1018.69 1018.46 1018.20 1017.88 1017.49 1017.04 1016.55 1016.03 1015.52 1015.02
1013.75 1014.37 1015.02 1015.69 1016.38 1017.09 1017.82 1018.56 1019.28 1019.97 1020.60 1021.14 1021.57 1021.87 1022.06 1022.14 1022.15 1022.09 1022.00 1021.89 1021.76 1021.60 1021.40 1021.16 1020.88 1020.56 1020.20 1019.83 1019.47 1019.13 1018.82 1018.55 1018.29 1018.04 1017.76 1017.44 1017.07 1016.64 1016.16 1015.64 1015.11 1014.58 1014.06
1013.42 1014.00 1014.64 1015.31 1016.03 1016.78 1017.56 1018.34 1019.11 1019.82 1020.45 1020.97 1021.37 1021.64 1021.78 1021.82 1021.78 1021.68 1021.56 1021.41 1021.24 1021.06 1020.85 1020.61 1020.33 1020.01 1019.66 1019.30 1018.95 1018.60 1018.28 1017.97 1017.68 1017.37 1017.04 1016.66 1016.24 1015.76 1015.23 1014.68 1014.11 1013.55 1013.01
1013.18 1013.74 1014.35 1015.03 1015.76 1016.53 1017.33 1018.13 1018.89 1019.60 1020.21 1020.70 1021.06 1021.29 1021.40 1021.40 1021.33 1021.22 1021.07 1020.91 1020.74 1020.55 1020.34 1020.09 1019.81 1019.50 1019.16 1018.79 1018.43 1018.07 1017.72 1017.38 1017.03 1016.68 1016.29 1015.85 1015.37 1014.84 1014.26 1013.66 1013.05 1012.45 1011.87
1013.07 1013.61 1014.21 1014.88 1015.60 1016.36 1017.14 1017.92 1018.66 1019.33 1019.89 1020.34 1020.66 1020.85 1020.93 1020.92 1020.85 1020.73 1020.60 1020.44 1020.28 1020.09 1019.88 1019.64 1019.35 1019.02 1018.66 1018.29 1017.89 1017.50 1017.11 1016.73 1016.33 1015.92 1015.48 1014.99 1014.46 1013.88 1013.26 1012.62 1011.97 1011.33 1010.70
1013.12 1013.64 1014.23 1014.87 1015.57 1016.29 1017.04 1017.76 1018.44 1019.04 1019.55 1019.93 1020.21 1020.37 1020.43 1020.42 1020.36 1020.27 1020.15 1020.02 1019.87 1019.69 1019.47 1019.21 1018.90 1018.55 1018.16 1017.74 1017.31 1016.87 1016.44 1016.00 1015.56 1015.10 1014.61 1014.09 1013.52 1012.91 1012.26 1011.59 1010.91 1010.23 1009.57
1013.31 1013.83 1014.40 1015.01 1015.66 1016.34 1017.01 1017.66 1018.26 1018.78 1019.21 1019.53 1019.76 1019.89 1019.95 1019.95 1019.91 1019.84 1019.74 1019.63 1019.48 1019.30 1019.07 1018.78 1018.43 1018.03 1017.59 1017.13 1016.64 1016.16 1015.68 1015.20 1014.73 1014.24 1013.72 1013.17 1012.59 1011.97 1011.31 1010.63 1009.93 1009.24 1008.56
1013.62 1014.13 1014.68 1015.26 1015.86 1016.47 1017.06 1017.62 1018.13 1018.56 1018.91 1019.17 1019.35 1019.46 1019.51 1019.52 1019.49 1019.43 1019.35 1019.24 1019.08 1018.88 1018.61 1018.28 1017.88 1017.42 1016.93 1016.41 1015.89 1015.37 1014.85 1014.35 1013.86 1013.36 1012.85 1012.30 1011.72 1011.11 1010.46 1009.78 1009.09 1008.40 1007.72
1013.99 1014.50 1015.03 1015.57 1016.11 1016.65 1017.16 1017.63 1018.04 1018.39 1018.66 1018.86 1019.00 1019.09 1019.12 1019.13 1019.10 1019.04 1018.95 1018.82 1018.63 1018.38 1018.06 1017.67 1017.22 1016.71 1016.17 1015.61 1015.06 1014.52 1014.00 1013.50 1013.02 1012.53 1012.04 1011.52 1010.97 1010.38 1009.76 1009.10 1008.43 1007.75 1007.08
1014.36 1014.87 1015.37 1015.87 1016.36 1016.83 1017.27 1017.65 1017.99 1018.26 1018.47 1018.62 1018.72 1018.77 1018.79 1018.77 1018.72 1018.64 1018.52 1018.34 1018.10 1017.79 1017.40 1016.95 1016.44 1015.89 1015.32 1014.75 1014.20 1013.67 1013.17 1012.70 1012.25 1011.81 1011.35 1010.87 1010.36 1009.81 1009.21 1008.59 1007.95 1007.29 1006.64
1014.69 1015.18 1015.65 1016.12 1016.56 1016.97 1017.34 1017.66 1017.93 1018.15 1018.30 1018.41 1018.47 1018.49 1018.48 1018.43 1018.34 1018.21 1018.03 1017.78 1017.47 1017.09 1016.64 1016.13 1015.58 1015.01 1014.44 1013.88 1013.35 1012.87 1012.42 1012.00 1011.61 1011.21 1010.81 1010.37 1009.90 1009.38 1008.83 1008.23 1007.62 1006.99 1006.36
1014.93 1015.40 1015.85 1016.28 1016.67 1017.04 1017.36 1017.63 1017.85 1018.02 1018.14 1018.21 1018.24 1018.23 1018.18 1018.08 1017.94 1017.74 1017.48 1017.16 1016.77 1016.32 1015.81 1015.26 1014.69 1014.12 1013.56 1013.05 1012.57 1012.15 1011.77 1011.42 1011.09 1010.75 1010.39 1010.00 1009.56 1009.07 1008.54 1007.97 1007.38 1006.78 1006.19
1015.10 1015.54 1015.95 1016.34 1016.70 1017.02 1017.30 1017.54 1017.73 1017.86 1017.95 1018.00 1018.00 1017.95 1017.86 1017.71 1017.50 1017.23 1016.90 1016.49 1016.03 1015.51 1014.96 1014.38 1013.81 1013.26 1012.75 1012.29 1011.88 1011.53 1011.22 1010.94 1010.67 1010.38 1010.05 1009.69 1009.27 1008.80 1008.28 1007.73 1007.17 1006.60 1006.05
Thickness
5681 5680 5679 5678 5677 5675 5672 5669 5664 5660 5656 5650 5645 5640 5635 5631 5628 5624 5621 5618 5614 5610 5606 5602 5598 5595 5591 5588 5585 5582 5580 5577 5576 5574 5575 5578 5579 5580 5580 5578 5577 5576 5575
5673 5672 5671 5669 5668 5666 5663 5660 5657 5653 5650 5645 5639 5633 5628 5623 5620 5616 5613 5609 5606 5602 5599 5594 5590 5586 5582 5579 5576 5573 5570 5568 5566 5563 5562 5563 5567 5569 5572 5569 5567 5566 5564
5668 5666 5663 5661 5658 5656 5655 5654 5650 5646 5642 5638 5632 5626 5619 5614 5610 5607 5603 5601 5598 5595 5591 5586 5582 5578 5574 5570 5567 5565 5561 5558 5555 5552 5549 5547 5549 5553 5561 5560 5558 5554 5551
5663 5660 5657 5654 5651 5648 5647 5645 5641 5638 5634 5630 5625 5619 5612 5606 5602 5598 5594 5591 5588 5585 5581 5578 5574 5570 5566 5562 5559 5556 5552 5549 5545 5542 5538 5535 5534 5532 5542 5547 5546 5544 5541
5659 5655 5652 5648 5645 5641 5638 5636 5633 5629 5625 5621 5616 5610 5603 5598 5593 5589 5585 5582 5579 5575 5572 5568 5564 5560 5557 5553 5550 5547 5543 5539 5536 5532 5528 5525 5521 5517 5515 5527 5532 5531 5529
5653 5649 5645 5641 5637 5633 5630 5627 5624 5619 5616 5611 5606 5601 5595 5590 5585 5580 5575 5572 5568 5565 5562 5558 5555 5551 5547 5544 5541 5538 5533 5529 5526 5522 5518 5513 5509 5507 5502 5505 5513 5515 5517
5648 5643 5638 5635 5630 5626 5622 5619 5615 5610 5606 5602 5597 5592 5587 5582 5576 5571 5566 5561 5557 5554 5552 5548 5545 5541 5538 5535 5531 5528 5524 5520 5516 5512 5508 5504 5500 5496 5492 5491 5496 5498 5501
5644 5641 5636 5631 5626 5620 5616 5611 5607 5602 5597 5593 5588 5583 5578 5572 5567 5562 5557 5552 5548 5544 5542 5538 5534 5531 5528 5524 5521 5517 5513 5510 5505 5501 5497 5492 5488 5483 5478 5473 5472 5479 5486
5640 5637 5631 5626 5621 5615 5610 5605 5599 5594 5589 5584 5578 5573 5568 5563 5558 5553 5548 5543 5539 5535 5532 5528 5524 5521 5517 5514 5510 5506 5503 5499 5494 5490 5485 5480 5477 5471 5465 5459 5452 5447 5457
5636 5631 5627 5622 5617 5611 5604 5597 5592 5586 5580 5574 5569 5564 5558 5553 5548 5543 5538 5533 5529 5525 5521 5517 5514 5510 5507 5503 5499 5495 5492 5488 5484 5479 5474 5469 5464 5459 5452 5445 5438 5431 5428
5635 5630 5624 5618 5611 5604 5596 5590 5583 5577 5571 5565 5559 5553 5548 5543 5537 5532 5527 5523 5518 5514 5510 5506 5503 5499 5496 5492 5488 5484 5481 5476 5473 5468 5463 5458 5452 5445 5439 5432 5425 5417 5409
5633 5626 5619 5611 5603 5596 5589 5582 5575 5569 5562 5556 5549 5543 5537 5532 5526 5521 5517 5512 5508 5503 5499 5495 5491 5488 5485 5481 5477 5473 5470 5465 5460 5455 5450 5444 5439 5432 5425 5417 5410 5403 5395
5625 5618 5611 5605 5598 5590 5582 5575 5567 5560 5553 5546 5539 5533 5526 5521 5515 5510 5506 5501 5497 5493 5489 5484 5480 5477 5473 5469 5465 5461 5457 5452 5447 5442 5436 5430 5423 5417 5410 5403 5395 5388 5382
5619 5612 5605 5598 5591 5583 5575 5567 5558 5551 5544 5536 5529 5522 5516 5511 5505 5500 5495 5490 5486 5482 5478 5474 5470 5466 5462 5457 5453 5449 5444 5440 5434 5428 5422 5415 5408 5402 5395 5388 5381 5374 5368
5611 5606 5598 5590 5582 5573 5565 5557 5549 5542 5534 5526 5519 5513 5507 5501 5495 5490 5485 5480 5475 5471 5467 5463 5459 5454 5450 5445 5441 5437 5433 5428 5423 5416 5409 5401 5394 5387 5380 5375 5368 5360 5353
5605 5599 5591 5582 5574 5566 5556 5547 5539 5531 5524 5516 5509 5503 5496 5491 5485 5480 5474 5469 5465 5460 5456 5451 5447 5443 5439 5436 5432 5428 5423 5416 5409 5402 5395 5387 5379 5372 5366 5359 5352 5345 5338
5597 5590 5583 5576 5567 5557 5548 5538 5530 5521 5513 5506 5499 5493 5486 5480 5475 5470 5464 5459 5455 5450 5445 5441 5436 5432 5428 5424 5420 5416 5410 5403 5394 5386 5379 5372 5364 5356 5348 5343 5338 5332 5325
5587 5580 5572 5563 5554 5546 5537 5528 5519 5511 5503 5496 5489 5483 5476 5470 5465 5459 5454 5449 5445 5440 5435 5431 5426 5421 5416 5412 5408 5402 5397 5389 5380 5371 5362 5355 5348 5339 5333 5330 5327 5322 5317
5576 5568 5560 5552 5542 5534 5525 5516 5508 5500 5492 5485 5479 5473 5466 5460 5455 5449 5444 5440 5435 5430 5425 5420 5415 5409 5404 5398 5392 5387 5381 5374 5366 5357 5347 5338 5332 5328 5321 5318 5315 5314 5311
5561 5554 5546 5538 5529 5521 5513 5505 5496 5488 5481 5475 5469 5463 5457 5451 5445 5440 5435 5430 5424 5420 5415 5410 5403 5396 5390 5384 5377 5370 5363 5358 5352 5344 5335 5325 5319 5316 5311 5307 5304 5305 5305
5546 5540 5532 5524 5516 5508 5500 5492 5484 5477 5472 5465 5459 5453 5447 5441 5435 5430 5424 5418 5413 5408 5403 5398 5392 5383 5375 5369 5361 5353 5345 5339 5335 5330 5322 5314 5308 5305 5302 5300 5297 5297 5300
5531 5525 5517 5509 5501 5495 5488 5480 5473 5468 5461 5455 5449 5443 5437 5431 5426 5419 5413 5406 5399 5394 5389 5383 5379 5371 5361 5352 5345 5338 5331 5323 5317 5313 5308 5303 5300 5298 5296 5294 5293 5294 5295
5518 5511 5503 5495 5488 5482 5476 5468 5463 5457 5450 5444 5438 5432 5426 5420 5413 5406 5400 5393 5386 5378 5373 5366 5362 5358 5350 5339 5330 5323 5316 5309 5302 5299 5297 5295 5292 5290 5288 5286 5287 5288 5285
5504 5497 5489 5482 5475 5469 5463 5457 5451 5446 5439 5433 5427 5421 5414 5409 5402 5394 5386 5379 5371 5363 5356 5349 5344 5341 5335 5325 5315 5308 5302 5296 5291 5287 5286 5285 5283 5281 5281 5281 5279 5277 5277
5490 5484 5477 5470 5464 5458 5452 5446 5440 5434 5428 5421 5415 5409 5402 5396 5390 5383 5374 5366 5359 5346 5339 5333 5326 5320 5318 5312 5303 5296 5290 5285 5281 5280 5279 5276 5274 5273 5273 5273 5272 5272 5272
5477 5471 5464 5458 5452 5446 5440 5434 5429 5423 5416 5409 5403 5397 5390 5383 5375 5369 5365 5358 5346 5338 5327 5317 5309 5304 5299 5296 5291 5285 5280 5276 5273 5271 5268 5267 5266 5266 5267 5267 5268 5267 5266